Rochester, NH

10:49 PM EDT on September 26, 2016 (GMT -0400)
Skyhaven

Weather History for KDAW - August, 2013

Change the Weather History Date:

Friday, August 30, 2013

  Actual Average (KSFM) Record (KSFM)
Temperature  
Mean Temperature 72 °F -  
Max Temperature 84 °F 73 °F 89 °F (2007)
Min Temperature 61 °F 50 °F 32 °F (1999)
Cooling Degree Days 6    
Growing Degree Days 22 (Base 50)    
Moisture  
Dew Point 62 °F    
Average Humidity 79    
Maximum Humidity 94    
Minimum Humidity 53    
Precipitation  
Precipitation 0.00 in - - ()
Sea Level Pressure  
Sea Level Pressure 29.90 in    
Wind  
Wind Speed 1 mph (NW)    
Max Wind Speed 7 mph    
Max Gust Speed -    
Visibility 10 miles    
Events      
Averages and records for this station are not official NWS values.
T = Trace of Precipitation, MM = Missing Value Source: NWS Daily Summary

Daily Weather History Graph

Daily Weather History Graph

Search for Another Location

Airport or City:

Trip Planner

Search our weather history database for the weather conditions in past years. The results will help you decide how hot, cold, wet, or windy it might be!

Date:

Astronomy

Aug. 30, 2013 Rise Set
Actual Time 6:05 AM EDT 7:21 PM EDT
Civil Twilight 5:36 AM EDT 7:51 PM EDT
Nautical Twilight 5:00 AM EDT 8:26 PM EDT
Astronomical Twilight 4:23 AM EDT 9:03 PM EDT
Moon 12:36 AM EDT (8/30) 3:40 PM EDT (8/30)
Length of Visible Light 14h 14m
Length of Day
13h 15m
Waning Crescent, 29% of the Moon is Illuminated
Aug 30
Waning Crescent
Sep 5
New
Sep 12
First Quarter
Sep 19
Full
Sep 26
Last Quarter

Hourly Weather History & Observations

Time (EDT) Temp. Heat Index Dew Point Humidity Pressure Visibility Wind Dir Wind Speed Gust Speed Precip Events Conditions
12:34 AM 62.6 °F - 59.0 °F 88% 30.02 in 10.0 mi Calm Calm - N/A   Overcast
12:51 AM 62.1 °F - 59.0 °F 90% 30.01 in 10.0 mi Calm Calm - N/A   Overcast
1:51 AM 61.0 °F - 59.0 °F 93% 30.00 in 10.0 mi Calm Calm - N/A   Overcast
2:38 AM 62.6 °F - 60.8 °F 94% 29.99 in 10.0 mi Calm Calm - N/A   Overcast
2:47 AM 62.6 °F - 59.0 °F 88% 29.99 in 10.0 mi Calm Calm - N/A   Overcast
2:51 AM 62.1 °F - 59.0 °F 90% 29.98 in 10.0 mi Calm Calm - N/A   Overcast
3:09 AM 62.6 °F - 59.0 °F 88% 29.98 in 10.0 mi Calm Calm - N/A   Overcast
3:51 AM 62.1 °F - 60.1 °F 93% 29.97 in 8.0 mi Calm Calm - N/A   Overcast
4:51 AM 61.0 °F - 59.0 °F 93% 29.96 in 10.0 mi Calm Calm - N/A   Overcast
5:51 AM 62.1 °F - 59.0 °F 90% 29.96 in 10.0 mi Calm Calm - N/A   Overcast
6:51 AM 62.1 °F - 60.1 °F 93% 29.96 in 10.0 mi Calm Calm - N/A   Overcast
7:23 AM 62.6 °F - 60.8 °F 94% 29.96 in 10.0 mi Calm Calm - N/A   Overcast
7:33 AM 62.6 °F - 60.8 °F 94% 29.96 in 10.0 mi Calm Calm - N/A   Overcast
7:51 AM 63.0 °F - 60.1 °F 90% 29.95 in 10.0 mi Calm Calm - N/A   Overcast
8:51 AM 64.0 °F - 60.1 °F 87% 29.96 in 10.0 mi Calm Calm - N/A   Overcast
9:51 AM 69.1 °F - 61.0 °F 75% 29.93 in 10.0 mi Calm Calm - N/A   Mostly Cloudy
10:08 AM 68.0 °F - 60.8 °F 78% 29.94 in 10.0 mi Calm Calm - N/A   Mostly Cloudy
10:51 AM 70.0 °F - 62.1 °F 76% 29.91 in 10.0 mi NW 4.6 mph - N/A   Overcast
11:02 AM 69.8 °F - 60.8 °F 73% 29.91 in 10.0 mi Variable 5.8 mph - N/A   Overcast
11:37 AM 73.4 °F - 62.6 °F 69% 29.91 in 10.0 mi Variable 6.9 mph - N/A   Scattered Clouds
11:51 AM 75.0 °F - 63.0 °F 66% 29.89 in 10.0 mi Calm Calm - N/A   Partly Cloudy
12:51 PM 79.0 °F - 64.0 °F 60% 29.86 in 10.0 mi Calm Calm - N/A   Clear
1:51 PM 80.1 °F 81.7 °F 64.0 °F 58% 29.84 in 10.0 mi Variable 4.6 mph - N/A   Scattered Clouds
2:51 PM 81.0 °F 82.5 °F 64.0 °F 56% 29.83 in 10.0 mi Variable 6.9 mph - N/A   Scattered Clouds
3:51 PM 82.9 °F 84.4 °F 64.0 °F 53% 29.81 in 10.0 mi Calm Calm - N/A   Scattered Clouds
4:51 PM 82.9 °F 84.4 °F 64.0 °F 53% 29.80 in 10.0 mi Variable 3.5 mph - N/A   Clear
5:51 PM 82.0 °F 83.8 °F 64.9 °F 56% 29.80 in 10.0 mi Calm Calm - N/A   Clear
6:51 PM 77.0 °F - 66.9 °F 71% 29.79 in 10.0 mi Calm Calm - N/A   Clear
7:51 PM 75.0 °F - 66.9 °F 76% 29.80 in 10.0 mi Calm Calm - N/A   Clear
8:51 PM 73.0 °F - 66.0 °F 79% 29.80 in 10.0 mi Calm Calm - N/A   Clear
9:51 PM 72.0 °F - 66.0 °F 81% 29.79 in 10.0 mi Calm Calm - N/A   Clear
10:51 PM 71.1 °F - 66.0 °F 84% 29.79 in 10.0 mi Calm Calm - N/A   Clear
11:51 PM 71.1 °F - 66.0 °F 84% 29.79 in 10.0 mi Calm Calm - N/A   Clear